User: anonymous   Login
Location: Unspecified
(0.0000°N, 0.0000°E)
Time: 01:52:05
(UTC+00:00)
Language:

TBA - TO BE ASSIGNED - Orbit

View from above orbital plane
View from above orbital plane
View from above satellite
View from above satellite

Ground track
Ground track

The orbit is defined by the following mean orbital elements,

1 67769U          26145.58335647 +.00000000 +00000-0 -11975+0 0 00000
2 67769  51.8954 209.0730 0003804 352.9881 179.9011 15.06595151    07
Epoch (UTC): 25 May 2026 14:00:01
Eccentricity: 0.0003804
inclination: 51.8954°
perigee height: 544 km
apogee height: 549 km
right ascension of ascending node: 209.0730°
argument of perigee: 352.9881°
revolutions per day: 15.06595151
mean anomaly at epoch: 179.9011°

The dashed part of the orbit path shows where the satellite is in the earth's shadow,  

DLR